| time (UTC) | temp F | wind direction | speed knots | gust knots | rain 1hr in | rain 24hr in | rain mn in | humidity % | barometer mb |
| 20260504004541 | 50 | 0 | 0.9 | 3.5 | 0.00 | 0.00 | 0.00 | 48 | 1011.9 |
| 20260504004028 | 51 | 0 | 0.9 | 4.3 | 0.00 | 0.00 | 0.00 | 47 | 1011.8 |
| 20260504003526 | 51 | 183 | 0.9 | 4.3 | 0.00 | 0.00 | 0.00 | 47 | 1011.8 |
| 20260504003046 | 51 | 216 | 1.7 | 5.2 | 0.00 | 0.00 | 0.00 | 45 | 1011.8 |
| 20260504002531 | 51 | 0 | 0.9 | 9.6 | 0.00 | 0.00 | 0.00 | 47 | 1011.7 |
| 20260504002026 | 51 | 0 | 1.7 | 9.6 | 0.00 | 0.00 | 0.00 | 46 | 1011.8 |
| 20260504001550 | 52 | 205 | 0.9 | 4.3 | 0.00 | 0.00 | 0.00 | 45 | 1011.7 |
| 20260504001030 | 52 | 215 | 0.9 | 7.0 | 0.00 | 0.00 | 0.00 | 45 | 1011.7 |
| 20260504000528 | 52 | 220 | 1.7 | 7.0 | 0.00 | 0.00 | 0.00 | 45 | 1011.7 |
| 20260504000113 | 52 | 198 | 0.9 | 5.2 | 0.00 | 0.00 | 0.00 | 45 | 1011.5 |
| 20260503235527 | 52 | 259 | 1.7 | 4.3 | 0.00 | 0.00 | 0.00 | 44 | 1011.5 |
| 20260503235027 | 53 | 279 | 0.0 | 6.1 | 0.00 | 0.00 | 0.00 | 44 | 1011.6 |
| 20260503234543 | 53 | 246 | 0.9 | 6.1 | 0.00 | 0.00 | 0.00 | 43 | 1011.5 |
| 20260503234027 | 53 | 250 | 0.9 | 3.5 | 0.00 | 0.00 | 0.00 | 44 | 1011.4 |
| 20260503233530 | 53 | 0 | 0.0 | 5.2 | 0.00 | 0.00 | 0.00 | 45 | 1011.3 |
| 20260503233040 | 53 | 289 | 0.9 | 5.2 | 0.00 | 0.00 | 0.00 | 44 | 1011.4 |
| 20260503232530 | 54 | 182 | 1.7 | 8.7 | 0.00 | 0.00 | 0.00 | 43 | 1011.3 |
| 20260503232026 | 54 | 0 | 1.7 | 8.7 | 0.00 | 0.00 | 0.00 | 42 | 1011.2 |
| 20260503231541 | 54 | 208 | 2.6 | 9.6 | 0.00 | 0.00 | 0.00 | 42 | 1011.3 |
| 20260503231031 | 54 | 219 | 1.7 | 9.6 | 0.00 | 0.00 | 0.00 | 43 | 1011.3 |
| 20260503230526 | 54 | 240 | 2.6 | 10.4 | 0.00 | 0.00 | 0.00 | 42 | 1011.2 |
| 20260503230053 | 55 | 204 | 2.6 | 11.3 | 0.00 | 0.00 | 0.00 | 41 | 1011.2 |
| 20260503225528 | 55 | 250 | 4.3 | 11.3 | 0.00 | 0.00 | 0.00 | 41 | 1011.1 |
| 20260503225029 | 55 | 173 | 0.9 | 6.1 | 0.00 | 0.00 | 0.00 | 42 | 1011.1 |
| 20260503224547 | 55 | 188 | 1.7 | 10.4 | 0.00 | 0.00 | 0.00 | 43 | 1011.2 |
| 20260503224029 | 55 | 242 | 2.6 | 10.4 | 0.00 | 0.00 | 0.00 | 45 | 1011.2 |
| 20260503223528 | 54 | 226 | 2.6 | 10.4 | 0.00 | 0.00 | 0.00 | 43 | 1011.2 |
| 20260503223045 | 54 | 178 | 1.7 | 13.0 | 0.00 | 0.00 | 0.00 | 43 | 1011.2 |
| 20260503222527 | 54 | 292 | 3.5 | 13.0 | 0.00 | 0.00 | 0.00 | 42 | 1011.2 |
| 20260503222028 | 55 | 242 | 0.9 | 7.0 | 0.00 | 0.00 | 0.00 | 43 | 1011.2 |
| 20260503221543 | 55 | 279 | 1.7 | 7.0 | 0.00 | 0.00 | 0.00 | 45 | 1011.2 |
| 20260503221027 | 54 | 215 | 1.7 | 10.4 | 0.00 | 0.00 | 0.00 | 44 | 1011.3 |
| 20260503220527 | 54 | 221 | 1.7 | 10.4 | 0.00 | 0.00 | 0.00 | 43 | 1011.3 |
| 20260503220042 | 55 | 221 | 2.6 | 10.4 | 0.00 | 0.00 | 0.00 | 41 | 1011.3 |
| 20260503215530 | 55 | 213 | 1.7 | 10.4 | 0.00 | 0.00 | 0.00 | 42 | 1011.3 |
| 20260503215027 | 55 | 319 | 2.6 | 11.3 | 0.00 | 0.00 | 0.00 | 43 | 1011.3 |
| 20260503214540 | 55 | 233 | 2.6 | 11.3 | 0.00 | 0.00 | 0.00 | 44 | 1011.3 |
| 20260503214029 | 55 | 220 | 3.5 | 10.4 | 0.00 | 0.00 | 0.00 | 42 | 1011.3 |
| 20260503213526 | 55 | 0 | 2.6 | 11.3 | 0.00 | 0.00 | 0.00 | 44 | 1011.2 |
| 20260503213044 | 55 | 253 | 4.3 | 11.3 | 0.00 | 0.00 | 0.00 | 41 | 1011.1 |
| 20260503212526 | 55 | 227 | 0.9 | 5.2 | 0.00 | 0.00 | 0.00 | 43 | 1011.3 |
| 20260503212026 | 55 | 258 | 1.7 | 8.7 | 0.00 | 0.00 | 0.00 | 43 | 1011.2 |
| 20260503211547 | 55 | 213 | 2.6 | 8.7 | 0.00 | 0.00 | 0.00 | 42 | 1011.2 |
| 20260503211028 | 56 | 0 | 1.7 | 10.4 | 0.00 | 0.00 | 0.00 | 42 | 1011.2 |
| 20260503210526 | 56 | 313 | 3.5 | 10.4 | 0.00 | 0.00 | 0.00 | 42 | 1011.2 |
| 20260503210044 | 55 | 253 | 1.7 | 13.9 | 0.00 | 0.00 | 0.00 | 46 | 1011.1 |
| 20260503205526 | 55 | 184 | 5.2 | 13.9 | 0.00 | 0.00 | 0.00 | 43 | 1011.2 |
| 20260503205027 | 55 | 255 | 1.7 | 8.7 | 0.00 | 0.00 | 0.00 | 43 | 1011.3 |
| 20260503204543 | 55 | 244 | 0.9 | 8.7 | 0.00 | 0.00 | 0.00 | 43 | 1011.3 |
| 20260503204026 | 55 | 311 | 1.7 | 8.7 | 0.00 | 0.00 | 0.00 | 43 | 1011.3 |
| 20260503203532 | 55 | 178 | 3.5 | 8.7 | 0.00 | 0.00 | 0.00 | 43 | 1011.2 |
| 20260503203044 | 55 | 263 | 2.6 | 7.0 | 0.00 | 0.00 | 0.00 | 43 | 1011.3 |
| 20260503202527 | 55 | 248 | 1.7 | 8.7 | 0.00 | 0.00 | 0.00 | 44 | 1011.4 |
| 20260503202031 | 55 | 284 | 1.7 | 10.4 | 0.00 | 0.00 | 0.00 | 43 | 1011.2 |
| 20260503201539 | 55 | 194 | 3.5 | 10.4 | 0.00 | 0.00 | 0.00 | 44 | 1011.3 |
| 20260503201026 | 55 | 250 | 2.6 | 10.4 | 0.00 | 0.00 | 0.00 | 44 | 1011.3 |
| 20260503200529 | 55 | 232 | 2.6 | 10.4 | 0.00 | 0.00 | 0.00 | 43 | 1011.4 |
| 20260503200048 | 55 | 238 | 3.5 | 10.4 | 0.00 | 0.00 | 0.00 | 42 | 1011.5 |
| 20260503195526 | 56 | 165 | 2.6 | 8.7 | 0.00 | 0.00 | 0.00 | 42 | 1011.5 |
| 20260503195026 | 56 | 211 | 1.7 | 7.8 | 0.00 | 0.00 | 0.00 | 43 | 1011.7 |
| 20260503194538 | 56 | 235 | 0.9 | 7.8 | 0.00 | 0.00 | 0.00 | 44 | 1011.8 |
| 20260503194026 | 56 | 272 | 1.7 | 12.2 | 0.00 | 0.00 | 0.00 | 46 | 1011.8 |
| 20260503193530 | 56 | 230 | 2.6 | 12.2 | 0.00 | 0.00 | 0.00 | 45 | 1012.0 |
| 20260503193046 | 56 | 229 | 3.5 | 12.2 | 0.00 | 0.00 | 0.00 | 44 | 1012.0 |
| 20260503192527 | 56 | 271 | 1.7 | 8.7 | 0.00 | 0.00 | 0.00 | 45 | 1012.0 |
| 20260503192032 | 56 | 266 | 3.5 | 11.3 | 0.00 | 0.00 | 0.00 | 44 | 1012.0 |
| 20260503191543 | 56 | 306 | 4.3 | 13.0 | 0.00 | 0.00 | 0.00 | 42 | 1012.0 |
| 20260503191027 | 56 | 257 | 2.6 | 13.0 | 0.00 | 0.00 | 0.00 | 42 | 1012.2 |
| 20260503190527 | 57 | 81 | 4.3 | 12.2 | 0.00 | 0.00 | 0.00 | 42 | 1012.1 |
| 20260503190042 | 57 | 246 | 2.6 | 8.7 | 0.00 | 0.00 | 0.00 | 46 | 1012.1 |
| 20260503185526 | 57 | 332 | 2.6 | 9.6 | 0.00 | 0.00 | 0.00 | 41 | 1012.1 |
| 20260503185029 | 57 | 226 | 2.6 | 9.6 | 0.00 | 0.00 | 0.00 | 44 | 1012.2 |
| 20260503184558 | 57 | 212 | 2.6 | 8.7 | 0.00 | 0.00 | 0.00 | 44 | 1012.1 |
| 20260503184027 | 57 | 309 | 1.7 | 13.0 | 0.00 | 0.00 | 0.00 | 42 | 1012.1 |
| 20260503183527 | 57 | 273 | 3.5 | 13.0 | 0.00 | 0.00 | 0.00 | 43 | 1012.0 |
| 20260503183037 | 57 | 228 | 3.5 | 11.3 | 0.00 | 0.00 | 0.00 | 46 | 1012.2 |
| 20260503182528 | 56 | 277 | 3.5 | 11.3 | 0.00 | 0.00 | 0.00 | 43 | 1012.3 |
| 20260503182026 | 56 | 296 | 3.5 | 10.4 | 0.00 | 0.00 | 0.00 | 45 | 1012.3 |
| 20260503181554 | 56 | 194 | 3.5 | 8.7 | 0.00 | 0.00 | 0.00 | 42 | 1012.2 |
| 20260503181031 | 55 | 100 | 3.5 | 9.6 | 0.00 | 0.00 | 0.00 | 43 | 1012.4 |
| 20260503180525 | 55 | 330 | 2.6 | 10.4 | 0.00 | 0.00 | 0.00 | 42 | 1012.4 |
| 20260503180047 | 55 | 195 | 1.7 | 10.4 | 0.00 | 0.00 | 0.00 | 43 | 1012.5 |
| 20260503175525 | 55 | 242 | 2.6 | 10.4 | 0.00 | 0.00 | 0.00 | 43 | 1012.4 |
| 20260503175025 | 55 | 231 | 3.5 | 9.6 | 0.00 | 0.00 | 0.00 | 41 | 1012.4 |
| 20260503174543 | 56 | 227 | 3.5 | 13.9 | 0.00 | 0.00 | 0.00 | 40 | 1012.5 |
| 20260503174030 | 56 | 234 | 3.5 | 13.9 | 0.00 | 0.00 | 0.00 | 43 | 1012.5 |
| 20260503173525 | 57 | 279 | 3.5 | 10.4 | 0.00 | 0.00 | 0.00 | 40 | 1012.5 |
| 20260503173043 | 57 | 231 | 1.7 | 10.4 | 0.00 | 0.00 | 0.00 | 46 | 1012.6 |
| 20260503172524 | 56 | 281 | 2.6 | 10.4 | 0.00 | 0.00 | 0.00 | 44 | 1012.6 |
| 20260503172026 | 56 | 244 | 3.5 | 10.4 | 0.00 | 0.00 | 0.00 | 44 | 1012.8 |
| 20260503171602 | 55 | 274 | 1.7 | 8.7 | 0.00 | 0.00 | 0.00 | 46 | 1012.7 |
| 20260503171028 | 55 | 192 | 2.6 | 11.3 | 0.00 | 0.00 | 0.00 | 44 | 1012.7 |
| 20260503170528 | 55 | 315 | 2.6 | 11.3 | 0.00 | 0.00 | 0.00 | 48 | 1012.8 |
| 20260503150527 | 48 | 288 | 1.7 | 8.7 | 0.00 | 0.00 | 0.00 | 50 | 1013.9 |
| 20260503131025 | 43 | 277 | 0.9 | 7.8 | 0.00 | 0.00 | 0.00 | 60 | 1014.3 |
| 20260503130526 | 42 | 240 | 0.9 | 4.3 | 0.00 | 0.00 | 0.00 | 62 | 1014.4 |
| 20260503110526 | 31 | 0 | 0.0 | 0.9 | 0.00 | 0.00 | 0.00 | 86 | 1014.2 |
| 20260503081542 | 33 | 0 | 0.0 | 2.6 | 0.00 | 0.00 | 0.00 | 83 | 1013.4 |
| 20260503081030 | 33 | 0 | 0.0 | 1.7 | 0.00 | 0.00 | 0.00 | 83 | 1013.3 |
| 20260503080526 | 33 | 0 | 0.0 | 0.9 | 0.00 | 0.00 | 0.00 | 83 | 1013.3 |
| 20260503072530 | 33 | 0 | 0.0 | 0.0 | 0.00 | 0.00 | 0.00 | 82 | 1013.3 |
| 20260503072026 | 33 | 0 | 0.0 | 0.9 | 0.00 | 0.00 | 0.00 | 82 | 1013.2 |
| 20260503071604 | 33 | 0 | 0.0 | 1.7 | 0.00 | 0.00 | 0.00 | 81 | 1013.3 |
| 20260503071026 | 33 | 0 | 0.0 | 1.7 | 0.00 | 0.00 | 0.00 | 81 | 1013.3 |
| 20260503070526 | 33 | 0 | 0.0 | 1.7 | 0.00 | 0.00 | 0.00 | 81 | 1013.3 |
| 20260503055030 | 34 | 255 | 0.0 | 2.6 | 0.00 | 0.00 | 0.00 | 80 | 1013.7 |
| 20260503054557 | 34 | 0 | 0.0 | 1.7 | 0.00 | 0.00 | 0.00 | 80 | 1013.7 |
| 20260503054026 | 34 | 0 | 0.0 | 0.9 | 0.00 | 0.00 | 0.00 | 80 | 1013.7 |
| 20260503053528 | 34 | 263 | 0.0 | 0.0 | 0.00 | 0.00 | 0.00 | 80 | 1013.8 |
| 20260503053042 | 34 | 0 | 0.0 | 0.9 | 0.00 | 0.00 | 0.00 | 81 | 1013.7 |
| 20260503052526 | 34 | 0 | 0.0 | 0.9 | 0.00 | 0.00 | 0.00 | 81 | 1013.8 |
| 20260503052028 | 34 | 0 | 0.0 | 0.9 | 0.00 | 0.00 | 0.00 | 81 | 1013.9 |
| 20260503051541 | 34 | 0 | 0.0 | 0.9 | 0.00 | 0.00 | 0.00 | 81 | 1013.9 |
| 20260503051028 | 34 | 0 | 0.0 | 1.7 | 0.00 | 0.00 | 0.00 | 81 | 1013.9 |
| 20260503050528 | 34 | 0 | 0.0 | 1.7 | 0.00 | 0.00 | 0.00 | 81 | 1013.9 |
| 20260503050046 | 34 | 267 | 0.0 | 1.7 | 0.00 | 0.00 | 0.00 | 81 | 1014.1 |
| 20260503045529 | 34 | 0 | 0.0 | 0.9 | 0.00 | 0.00 | 0.00 | 81 | 1014.0 |